This demonstration page uses our WeatherBlox Daily Observations layout. Learn more.

Left ArrowRight Arrow

Hourly Observations for June 11, 2021

Temp ( °F °C ) Dew Point ( °F °C ) Humidity (%) Winds ( mph kmh ) Pressure ( in mb ) Visibility ( mi km ) Precip ( " mm )
12:53 am 00:53 Cloudy 74 23.3 72 22.2 94 94 N N/A 29.85 1011 8 13 N/A
1:53 am 01:53 Clear with Mist and Fog 72 22.2 71 21.7 97 97 N N/A 29.84 1011 6 10 N/A
2:08 am 02:08 Partly Cloudy with Nearby Thunderstorms 72 22.2 71 21.7 97 97 N N/A 29.84 1011 6 10 N/A
2:25 am 02:25 Partly Cloudy 72 22.2 71 21.7 97 97 W 3 6 29.84 1011 8 13 N/A
2:53 am 02:53 Mostly Cloudy with Mist and Fog 72 22.2 71 21.7 97 97 N N/A 29.84 1010 6 10 N/A
3:53 am 03:53 Cloudy with Mist and Fog 71 21.7 70 21.1 96 96 N N/A 29.82 1010 6 10 N/A
4:53 am 04:53 Mostly Clear 71 21.7 70 21.1 96 96 N N/A 29.83 1010 7 11 N/A
5:53 am 05:53 Clear 71 21.7 70 21.1 96 96 N N/A 29.81 1009 7 11 N/A
6:53 am 06:53 Sunny with Mist and Fog 70 21.1 70 21.1 100 100 N N/A 29.82 1010 5 8 N/A
7:53 am 07:53 Sunny 72 22.2 70 21.1 94 94 N N/A 29.82 1010 7 11 N/A
8:53 am 08:53 Sunny 73 22.8 71 21.7 94 94 WNW 3 6 29.83 1010 7 11 N/A
9:32 am 09:32 Partly Cloudy 75 23.9 71 21.7 88 88 N N/A 29.83 1010 8 13 N/A
9:42 am 09:42 Mostly Cloudy 75 23.9 71 21.7 88 88 WNW 3 6 29.83 1010 8 13 N/A
9:53 am 09:53 Cloudy 76 24.4 71 21.7 85 85 N N/A 29.84 1010 8 13 N/A
10:14 am 10:14 Mostly Cloudy 77 25 72 22.2 85 85 N N/A 29.82 1010 8 13 N/A
10:53 am 10:53 Mostly Cloudy 78 25.6 72 22.2 82 82 VRB 3 6 29.83 1010 9 14 N/A
11:53 am 11:53 Mostly Sunny 82 27.8 71 21.7 69 69 VRB 5 7 29.83 1010 10 16 N/A
12:53 pm 12:53 Partly Cloudy with Light Rain 83 28.3 70 21.1 65 65 N N/A 29.82 1010 10 16 0.00 0.00
1:53 pm 13:53 Mostly Cloudy with Light Rain 84 28.9 72 22.2 67 67 W 5 7 29.80 1009 10 16 0.00 0.00
2:53 pm 14:53 Partly Cloudy 80 26.7 72 22.2 76 76 N N/A 29.79 1009 10 16 0.00 0.00
3:22 pm 15:22 Sunny with Nearby Thunderstorms 83 28.3 74 23.3 74 74 N N/A 29.77 1008 10 16 N/A
3:37 pm 15:37 Partly Cloudy with Light Rain 85 29.4 72 22.2 65 65 WNW 5 7 29.76 1008 10 16 0.00 0.00
3:53 pm 15:53 Mostly Cloudy with Rain 84 28.9 72 22.2 67 67 NNE 9 15 29.77 1008 5 8 0.02 0.51
4:30 pm 16:30 Partly Cloudy with Nearby Thunderstorms 84 28.9 73 22.8 70 70 ENE 7 11 29.75 1007 10 16 0.01 0.25
4:53 pm 16:53 Partly Cloudy with Nearby Thunderstorms 87 30.6 72 22.2 61 61 NNW 8 13 29.76 1008 10 16 0.01 0.25
5:02 pm 17:02 Sunny 87 30.6 70 21.1 57 57 N 6 9 29.74 1007 10 16 0.00 0.00
5:22 pm 17:22 Partly Cloudy with Nearby Thunderstorms 88 31.1 72 22.2 59 59 N 8 13 29.73 1007 10 16 0.00 0.00
5:53 pm 17:53 Partly Cloudy with Nearby Thunderstorms 87 30.6 70 21.1 57 57 N 6 9 29.74 1007 10 16 0.00 0.00
6:02 pm 18:02 Sunny with Light Rain 88 31.1 71 21.7 57 57 NW 8 13 29.73 1007 10 16 0.00 0.00
6:45 pm 18:45 Mostly Cloudy with Nearby Thunderstorms 81 27.2 71 21.7 72 72 E 10 17 29.74 1007 10 16 0.00 0.00
6:53 pm 18:53 Partly Cloudy with Nearby Thunderstorms 81 27.2 71 21.7 72 72 ESE 6 9 29.75 1008 10 16 0.00 0.00
7:03 pm 19:03 Partly Cloudy with Light Rain 81 27.2 72 22.2 74 74 VRB 3 6 29.75 1007 10 16 0.00 0.00
7:53 pm 19:53 Sunny 81 27.2 71 21.7 72 72 N N/A 29.77 1008 10 16 0.00 0.00
8:53 pm 20:53 Sunny 77 25 73 22.8 88 88 N N/A 29.78 1009 10 16 0.00 0.00
9:53 pm 21:53 Clear 74 23.3 72 22.2 94 94 N N/A 29.81 1009 8 13 0.00 0.00
10:53 pm 22:53 Mostly Clear 73 22.8 71 21.7 94 94 N N/A 29.82 1010 7 11 N/A
11:53 pm 23:53 Clear with Mist and Fog 71 21.7 70 21.1 96 96 N N/A 29.81 1009 6 10 N/A

Powered by AerisWeather